This is the latest recevied weather packets stored in our database for station/object KD8OZS. If no packets are shown the sender has not sent any weather packets the latest 10 day(s).
| Time | Temp. | Humidity | Pressure | Rain* | Wind** | Luminosity | Snow |
|---|---|---|---|---|---|---|---|
| 1777215575 | 8.89° C | 89% | 1012.3 hPa | 0 mm | - | 100 W/m² | - |
| 1777215272 | 8.89° C | 89% | 1012.4 hPa | 0 mm | - | 103 W/m² | - |
| 1777214967 | 8.89° C | 89% | 1012.1 hPa | 0 mm | - | 100 W/m² | - |
| 1777214667 | 8.89° C | 89% | 1012.3 hPa | 0 mm | - | 95 W/m² | - |
| 1777214362 | 8.89° C | 89% | 1012.1 hPa | 0 mm | - | 85 W/m² | - |
| 1777214061 | 9.44° C | 89% | 1012.4 hPa | 0 mm | - | 83 W/m² | - |
| 1777213756 | 8.89° C | 89% | 1012.3 hPa | 0 mm | - | 72 W/m² | - |
| 1777213452 | 8.89° C | 89% | 1012.1 hPa | 0 mm | - | 78 W/m² | - |
| 1777213150 | 8.89° C | 89% | 1012 hPa | 0 mm | - | 82 W/m² | - |
| 1777212846 | 8.89° C | 89% | 1012 hPa | 0 mm | - | 84 W/m² | - |
| 1777212543 | 8.89° C | 89% | 1011.9 hPa | 0 mm | - | 89 W/m² | - |
| 1777212236 | 8.89° C | 89% | 1011.9 hPa | 0 mm | - | 84 W/m² | - |
| 1777211931 | 8.89° C | 89% | 1011.8 hPa | 0 mm | - | 87 W/m² | - |
| 1777211631 | 8.89° C | 89% | 1011.7 hPa | 0 mm | - | 85 W/m² | - |
| 1777211327 | 8.89° C | 89% | 1011.8 hPa | 0 mm | - | 80 W/m² | - |
| 1777211022 | 8.89° C | 89% | 1011.9 hPa | 0 mm | - | 85 W/m² | - |
| 1777210719 | 8.89° C | 89% | 1011.8 hPa | 0 mm | - | 83 W/m² | - |
| 1777210414 | 8.33° C | 89% | 1011.7 hPa | 0 mm | - | 85 W/m² | - |
| 1777210111 | 8.33° C | 89% | 1011.9 hPa | 0 mm | - | 83 W/m² | - |
| 1777209807 | 8.33° C | 89% | 1011.8 hPa | 0 mm | - | 78 W/m² | - |
| 1777209502 | 8.33° C | 89% | 1011.7 hPa | 0 mm | - | 82 W/m² | - |
| 1777209198 | 7.78° C | 89% | 1011.6 hPa | 0 mm | - | 77 W/m² | - |
| 1777208895 | 8.33° C | 89% | 1011.8 hPa | 0 mm | - | 74 W/m² | - |
| 1777208591 | 7.78° C | 89% | 1011.8 hPa | 0 mm | - | 62 W/m² | - |
| 1777208288 | 7.78° C | 89% | 1011.6 hPa | 0 mm | - | 57 W/m² | - |
* Rain latest hour (hover to see other rain measurements)
** Current wind speed in m/s (hover to see current wind gust speed)